FW9868 Weather Reports


time (UTC)temp
C
wind
direction
speed
KPH
gust
KPH
rain 1hr
cm
rain 24hr
cm
rain mn
cm
humidity
%
barometer
mb
20260505034652 12 351 0.0 0.0 0.00 0.00 0.00 92 1017.3
20260505033150 12 347 0.0 0.0 0.00 0.00 0.00 92 1017.4
20260505031647 13 349 0.0 0.0 0.00 0.00 0.00 91 1017.2
20260505030146 13 350 0.0 1.6 0.00 0.00 0.00 90 1017.5
20260505024644 13 351 0.0 0.0 0.00 0.00 0.00 90 1017.4
20260505023142 13 353 0.0 0.0 0.00 0.00 0.00 89 1017.3
20260505021639 14 2 0.0 0.0 0.00 0.00 0.00 88 1017.3
20260505020139 14 355 0.0 0.0 0.00 0.00 0.00 87 1017.0
20260505014635 15 350 0.0 0.0 0.00 0.00 0.00 86 1016.8
20260505013133 15 351 0.0 0.0 0.00 0.00 0.00 84 1016.7
20260505011629 16 0 0.0 0.0 0.00 0.00 0.00 81 1016.7
20260505010124 17 356 0.0 0.0 0.00 0.00 0.00 80 1016.5
20260505004621 17 1 0.0 0.0 0.00 0.00 0.00 77 1016.7
20260505003118 18 9 0.0 0.0 0.00 0.00 0.00 74 1016.6
20260505001614 20 348 0.0 0.0 0.00 0.00 0.00 70 1016.4
20260505000113 20 348 0.0 0.0 0.00 0.00 0.00 65 1016.5
20260504234608 21 7 0.0 0.0 0.00 0.00 0.00 63 1016.4
20260504233103 22 353 0.0 1.6 0.00 0.00 0.00 60 1016.7
20260504231600 23 356 0.0 0.0 0.00 0.00 0.00 56 1016.6
20260504230058 23 5 0.0 0.0 0.00 0.00 0.00 51 1016.9
20260504224554 24 341 0.0 0.0 0.00 0.00 0.00 49 1016.9
20260504223049 25 339 0.0 1.6 0.00 0.00 0.00 48 1016.7
20260504221547 25 311 0.0 4.8 0.00 0.00 0.00 41 1017.0
20260504220043 25 222 4.8 8.0 0.00 0.00 0.00 41 1017.1
20260504214538 25 329 0.0 4.8 0.00 0.00 0.00 44 1017.2
20260504213035 25 118 1.6 4.8 0.00 0.00 0.00 40 1017.3
20260504211531 25 197 0.0 1.6 0.00 0.00 0.00 43 1017.1
20260504210027 25 232 3.2 6.4 0.00 0.00 0.00 42 1017.4
20260504204526 25 252 4.8 6.4 0.00 0.00 0.00 44 1017.3
20260504203026 26 346 0.0 1.6 0.00 0.00 0.00 41 1017.5
20260504201521 26 348 0.0 6.4 0.00 0.00 0.00 42 1017.7
20260504200018 26 273 1.6 6.4 0.00 0.00 0.00 38 1017.9
20260504194513 27 266 1.6 6.4 0.00 0.00 0.00 35 1018.0
20260504193010 27 227 0.0 1.6 0.00 0.00 0.00 38 1018.5
20260504191509 27 118 1.6 4.8 0.00 0.00 0.00 41 1018.7
20260504190009 26 228 0.0 4.8 0.00 0.00 0.00 42 1018.9
20260504184509 27 232 0.0 4.8 0.00 0.00 0.00 42 1019.1
20260504183007 27 241 3.2 4.8 0.00 0.00 0.00 41 1019.5
20260504181503 28 273 0.0 4.8 0.00 0.00 0.00 39 1019.8
20260504175958 26 160 3.2 4.8 0.00 0.00 0.00 42 1020.0
20260504174456 26 225 3.2 6.4 0.00 0.00 0.00 42 1020.1
20260504172953 26 306 1.6 1.6 0.00 0.00 0.00 45 1020.1
20260504171448 25 18 1.6 4.8 0.00 0.00 0.00 47 1020.3
20260504081302 5 348 0.0 0.0 0.00 0.00 0.00 95 1021.1
20260504045721 8 346 0.0 0.0 0.00 0.00 0.00 93 1022.5
20260504044216 8 348 0.0 0.0 0.00 0.00 0.00 93 1022.3
20260504042713 8 7 0.0 0.0 0.00 0.00 0.00 93 1022.5
20260504041213 8 345 0.0 0.0 0.00 0.00 0.00 93 1022.5